Weather History for New Delhi, India

Change the Weather History Date:

Tuesday, January 31, 2012

  Actual Average Record
Temperature  
Mean Temperature 54 °F -  
Max Temperature 68 °F 73 °F 62 °F (2014)
Min Temperature 41 °F 51 °F 50 °F (2014)
Degree Days  
Heating Degree Days 10    
Growing Degree Days 4 (Base 50)    
Moisture  
Dew Point 39 °F    
Average Humidity 61    
Maximum Humidity 100    
Minimum Humidity 28    
Precipitation  
Precipitation 0.00 in - - ()
Sea Level Pressure  
Sea Level Pressure 30.09 in    
Wind  
Wind Speed 2 mph ()    
Max Wind Speed 10 mph    
Max Gust Speed -    
Visibility 1.3 miles    
Events Fog    
Averages and records for this station are not official NWS values.
T = Trace of Precipitation, MM = Missing Value Source: Averaged Metar Reports

Daily Weather History Graph

Daily Weather History Graph

Search for Another Location

Airport:

Trip Planner

Search our weather history database for the weather conditions in past years. The results will help you decide how hot, cold, wet, or windy it might be!

Date:

Astronomy

Jan. 31, 2012 Rise Set
Actual Time 7:10 AM IST 5:59 PM IST
Civil Twilight 6:45 AM IST 6:24 PM IST
Nautical Twilight 6:17 AM IST 6:52 PM IST
Astronomical Twilight 5:49 AM IST 7:20 PM IST
Moon 11:35 AM IST (1/31) 12:31 AM IST (1/31)
Length of Visible Light 11h 38m
Length of Day
10h 48m
Waxing Crescent, 51% of the Moon is Illuminated
Jan 31
Waxing Crescent
Feb 8
Full
Feb 14
Last Quarter
Feb 22
New
Mar 1
First Quarter

Hourly Weather History & Observations

Time (IST) Temp. Dew Point Humidity Pressure Visibility Wind Dir Wind Speed Gust Speed Precip Events Conditions
12:00 AM 50.0 °F 44.6 °F 82% 30.09 in 0.6 mi Calm Calm - N/A   Mist
12:30 AM 48.2 °F 44.6 °F 87% 30.09 in 0.6 mi Calm Calm - N/A   Mist
1:00 AM 46.4 °F 44.6 °F 93% 30.09 in 0.6 mi Calm Calm - N/A Fog Shallow Fog
1:30 AM 46.4 °F 44.6 °F 93% 30.09 in 0.6 mi Calm Calm - N/A Fog Shallow Fog
2:30 AM 44.6 °F 42.8 °F 93% 30.06 in 0.4 mi Calm Calm - N/A Fog Shallow Fog
3:00 AM 44.6 °F 44.6 °F 100% 30.06 in 0.3 mi Calm Calm - N/A Fog Fog
3:30 AM 46.4 °F 41.0 °F 81% 30.06 in 0.2 mi Calm Calm - N/A Fog Fog
4:00 AM 46.4 °F 41.0 °F 81% 30.06 in 0.2 mi Calm Calm - N/A Fog Fog
4:30 AM 44.6 °F 41.0 °F 87% 30.06 in 0.2 mi Calm Calm - N/A Fog Shallow Fog
5:00 AM 44.6 °F 41.0 °F 87% 30.06 in 0.3 mi Calm Calm - N/A Fog Fog
5:30 AM 44.6 °F 41.0 °F 87% 30.06 in 0.3 mi Calm Calm - N/A Fog Fog
6:00 AM 42.8 °F 39.2 °F 87% 30.06 in 0.4 mi Calm Calm - N/A Fog Shallow Fog
7:00 AM 41.0 °F 37.4 °F 87% 30.09 in 0.5 mi Calm Calm - N/A Fog Shallow Fog
7:30 AM 41.0 °F 39.2 °F 93% 30.12 in 0.4 mi Calm Calm - N/A Fog Shallow Fog
8:00 AM 42.8 °F 39.2 °F 87% 30.12 in 0.6 mi Calm Calm - N/A Fog Shallow Fog
8:30 AM 44.6 °F 41.0 °F 87% 30.12 in 0.6 mi Calm Calm - N/A   Mist
9:00 AM 48.2 °F 41.0 °F 76% 30.12 in 0.7 mi SW 5.8 mph - N/A   Mist
10:30 AM 57.2 °F 41.0 °F 55% 30.15 in 1.2 mi West 4.6 mph - N/A   Smoke
11:00 AM 60.8 °F 39.2 °F 45% 30.15 in 1.6 mi West 4.6 mph - N/A   Smoke
11:30 AM 62.6 °F 41.0 °F 45% 30.15 in - WNW 5.8 mph - N/A   Haze
12:00 PM 64.4 °F 37.4 °F 37% 30.15 in 2.5 mi West 6.9 mph - N/A   Haze
12:30 PM 66.2 °F 37.4 °F 35% 30.12 in 2.5 mi NW 8.1 mph - N/A   Haze
1:00 PM 66.2 °F 35.6 °F 32% 30.12 in 2.5 mi NW 6.9 mph - N/A   Haze
1:30 PM 66.2 °F 35.6 °F 32% 30.12 in 2.5 mi NW 6.9 mph - N/A   Haze
2:00 PM 68.0 °F 35.6 °F 30% 30.09 in 2.5 mi WNW 9.2 mph - N/A   Haze
2:30 PM 68.0 °F 33.8 °F 28% 30.09 in 2.5 mi WNW 9.2 mph - N/A   Haze
3:00 PM 68.0 °F 35.6 °F 30% 30.06 in 2.8 mi WNW 4.6 mph - N/A   Haze
4:00 PM 68.0 °F 35.6 °F 30% 30.06 in 3.1 mi WNW 9.2 mph - N/A   Haze
4:30 PM 68.0 °F 33.8 °F 28% 30.06 in 3.1 mi WNW 10.4 mph - N/A   Haze
5:00 PM 68.0 °F 33.8 °F 28% 30.06 in 3.1 mi WNW 10.4 mph - N/A   Haze
5:30 PM 66.2 °F 37.4 °F 35% 30.06 in 2.8 mi NW 8.1 mph - N/A   Haze
6:00 PM 64.4 °F 37.4 °F 37% 30.06 in 2.5 mi NW 6.9 mph - N/A   Haze
6:30 PM 62.6 °F 39.2 °F 42% 30.06 in 2.2 mi NW 4.6 mph - N/A   Haze
7:00 PM 62.6 °F 39.2 °F 42% 30.06 in - WNW 3.5 mph - N/A   Haze
8:00 PM 59.0 °F 39.2 °F 48% 30.06 in 1.3 mi WNW 3.5 mph - N/A   Haze
8:30 PM 57.2 °F 39.2 °F 51% 30.09 in 1.0 mi WSW 3.5 mph - N/A   Smoke
9:30 PM 55.4 °F 41.0 °F 58% 30.09 in 0.9 mi WSW 3.5 mph - N/A   Smoke
10:00 PM 53.6 °F 41.0 °F 62% 30.09 in 0.9 mi West 5.8 mph - N/A   Smoke
10:30 PM 55.4 °F 41.0 °F 58% 30.09 in 0.9 mi WNW 4.6 mph - N/A   Smoke
11:00 PM 53.6 °F 39.2 °F 58% 30.09 in 1.2 mi West 4.6 mph - N/A   Smoke
11:30 PM 53.6 °F 39.2 °F 58% 30.09 in 1.1 mi WSW 3.5 mph - N/A   Smoke